SCP
1 0 0 0 0 0 0 0 -0 0 -0 0 0 0 0 0 0 0 0 0 0 -0 0 -0 -0 0 0 0 0 0 0 0 0 0 0 0 -0 0 0 0 0 -0 -0 -0 0 0 -0 0 0
0 1 1 0 0 0 0 0 0 0 0 0 -0 -0 0 0 0 0 0 0 -0 -0 0 -0 -0 0 0 0 0 0 0 0 -0 -0 -0 -0 -0 -0 0 0 0 0 -0 -0 0 0 0 0 0
1 1 0 0 0 0 0 0 0 0 0 0 0 0 0 0 0 -0 0 -0 0 0 0 0 0 -0 -0 -0 0 0 0 -0 -0 -0 -0 -0 -0 -0 -0 0 0 0 0 -0 -0 0 0 0 0
0 1 0 0 0 0 0 0 0 0 0 -0 0 0 0 0 -0 0 0 0 0 0 0 0 -0 0 0 0 0 0 0 0 -0 -0 -0 -0 -0 0 0 0 0 0 0 -0 -0 0 0 0 0
0 1 0 0 0 0 0 0 0 0 0 0 0 0 0 0 -0 -0 0 0 0 0 0 0 0 -0 -0 0 0 0 0 -0 -0 0 -0 -0 0 -0 0 0 0 -0 0 -0 -0 0 0 0 -0
1 1 0 0 0 0 0 0 0 0 0 0 0 0 0 0 0 0 0 0 0 0 0 0 -0 0 0 0 0 0 -0 0 -0 -0 -0 0 -0 0 -0 -0 0 0 0 0 -0 0 -0 0 0
0 1 0 0 0 0 0 0 0 0 0 0 -0 -0 -0 -0 -0 -0 -0 0 0 0 0 0 0 0 0 0 0 0 0 -0 -0 0 -0 -0 -0 -0 -0 0 0 0 0 0 0 0 0 0 0
0 1 0 0 0 0 0 0 0 0 0 0 -0 0 -0 -0 -0 -0 0 0 0 0 0 0 0 0 0 0 -0 -0 -0 -0 -0 -0 -0 -0 -0 -0 -0 -0 -0 -0 -0 -0 -0 0 0 0 0
0 0 0 0 0 0 0 0 0 0 0 0 0 0 -0 -0 -0 -0 -0 -0 -0 -0 0 0 0 0 0 0 0 -0 -0 -0 -0 -0 -0 0 -0 -0 0 0 -0 -0 -0 -0 0 0 -0 -0 0
0 0 0 0 0 0 0 0 0 0 0 0 0 -0 -0 -0 -0 -0 0 0 -0 -0 0 0 0 0 -0 0 -0 -0 -0 -0 -0 0 -0 -0 -0 -0 -0 -0 0 0 -0 0 0 -0 0 -0 -0
0 0 0 -0 0 0 0 0 0 0 0 0 -0 -0 -0 -0 0 -0 -0 0 -0 -0 -0 -0 -0 -0 -0 -0 -0 -0 -0 -0 -0 -0 -0 -0 -0 -0 -0 -0 -0 -0 0 -0 -0 -0 -0 -0 -0
0 0 0 0 0 0 0 0 0 0 0 0 -0 -0 -0 -0 -0 -0 0 0 -0 -0 -0 -0 -0 -0 -0 -0 -0 -0 -0 -0 -0 -0 -0 -0 -0 0 -0 -0 -0 -0 -0 0 -0 -0 -0 -0 -0
0 -0 0 0 0 0 0 0 0 0 0 0 0 -0 -0 -0 -0 -0 0 0 -0 -0 -0 0 -0 -0 -0 -0 -0 -0 -0 -0 -0 -0 0 0 -0 -0 0 0 0 -0 0 0 0 -0 -0 -0 -0
0 0 0 0 0 -0 0 0 0 0 0 0 0 0 -0 -0 -0 -0 -0 -0 0 0 0 0 0 0 -0 0 0 0 -0 0 -0 -0 0 -0 -0 -0 0 0 0 -0 0 0 0 -0 -0 -0 0
0 0 0 -0 0 -0 0 0 0 0 0 0 0 0 0 -0 -0 -0 -0 -0 -0 0 0 -0 -0 0 0 0 0 0 -0 -0 -0 -0 0 0 -0 -0 0 -0 -0 -0 -0 0 -0 -0 0 0 0
-0 -0 -0 -0 -0 0 0 0 0 0 0 0 0 0 0 -0 -0 -0 -0 -0 -0 -0 -0 -0 -0 0 0 0 0 0 -0 -0 -0 0 0 0 0 -0 0 0 -0 -0 0 0 -0 -0 0 0 0
-0 -0 0 0 -0 0 -0 -0 0 0 0 0 0 0 0 0 -0 0 -0 -0 -0 -0 -0 -0 -0 -0 -0 0 0 0 0 0 0 0 0 0 0 0 0 -0 -0 0 0 0 -0 0 0 0 0
-0 0 0 -0 0 0 0 -0 0 0 -0 0 0 0 0 0 -0 0 -0 -0 -0 -0 -0 -0 0 0 0 0 0 0 0 0 0 0 0 0 0 0 -0 0 0 -0 0 0 0 0 0 0 0
0 0 0 -0 0 0 -0 -0 0 0 0 -0 -0 -0 -0 -0 -0 -0 -0 -0 -0 -0 -0 -0 -0 -0 -0 0 0 0 0 0 0 0 0 0 0 0 0 0 0 -0 0 0 0 -0 0 -0 -0
0 -0 -0 0 0 0 0 -0 -0 -0 -0 -0 -0 -0 -0 -0 -0 -0 -0 -0 -0 -0 -0 -0 -0 0 0 0 0 0 0 -0 0 0 0 0 0 0 -0 0 -0 -0 -0 0 0 0 -0 -0 -0
0 -0 -0 -0 0 0 0 -0 0 0 0 -0 -0 -0 0 -0 -0 -0 -0 -0 -0 -0 -0 -0 -0 -0 0 0 0 0 0 0 0 -0 0 -0 -0 -0 -0 0 0 -0 -0 -0 -0 0 -0 -0 -0
0 -0 -0 -0 0 -0 0 -0 0 0 0 -0 -0 -0 -0 -0 -0 -0 -0 -0 -0 -0 -0 -0 -0 -0 0 0 0 0 0 0 0 0 0 -0 -0 -0 -0 0 0 -0 -0 -0 -0 -0 -0 0 -0
0 0 0 -0 0 0 0 0 -0 0 -0 -0 -0 -0 -0 -0 -0 -0 -0 -0 -0 -0 -0 -0 -0 -0 0 0 0 0 0 0 0 0 0 -0 -0 0 -0 -0 -0 -0 -0 -0 -0 -0 -0 0 0
0 0 0 0 0 0 0 0 -0 0 -0 -0 -0 -0 -0 -0 -0 -0 -0 -0 -0 -0 -0 -0 -0 -0 -0 -0 -0 -0 -0 0 0 0 0 0 -0 -0 -0 -0 -0 -0 -0 -0 -0 -0 -0 -0 -0
0 0 0 0 0 0 0 0 0 0 -0 -0 -0 -0 -0 -0 -0 -0 -0 -0 -0 -0 -0 -0 -0 -0 -0 -0 -0 -0 -0 -0 -0 -0 -0 0 -0 -0 -0 -0 -0 -0 0 -0 -0 -0 -0 -0 0
0 0 0 0 0 0 0 0 0 -0 0 -0 -0 -0 -0 -0 -0 -0 -0 -0 -0 -1 -0 -0 -0 -0 -0 -0 -0 -0 -0 -0 -0 -0 -0 -0 -0 -0 -0 -0 0 0 -0 -0 -0 -0 0 0 0
0 0 0 0 0 0 0 0 -0 -0 -0 0 0 0 -0 -0 0 -0 -0 -0 -0 -1 -1 -1 -0 -0 -0 -0 -0 -0 -0 -0 -0 -0 -0 -0 -0 0 0 0 -0 -0 -0 -0 -0 0 0 0 0
0 0 0 0 0 0 0 0 0 0 -0 -0 0 0 0 -0 -0 -0 -0 -0 -0 -1 -1 -1 -1 -1 -0 -0 -0 -0 -0 -0 -0 -0 -0 -0 -0 -0 0 0 0 -0 0 0 0 0 0 0 0
0 0 0 0 0 0 0 0 0 0 -0 0 0 0 0 -0 -0 -0 -0 -0 -0 -1 -1 -1 -1 -1 -0 -0 -0 -0 -0 -0 -0 -0 -0 -0 -0 -0 -0 0 0 0 0 0 0 0 0 0 0
0 0 0 0 0 0 0 0 0 -0 0 0 -0 0 0 0 0 0 0 -0 -0 -1 -1 -1 -0 -1 -1 -1 -1 -1 -1 -0 -0 -0 -0 -0 -0 -0 -0 -0 -0 0 0 0 0 0 0 0 0
Wind_Speed_500mb
13 9 0 6 3 6 6 5 5 16 14 7 25 7 8 5 1 4 52 47 46 45 48 46 43 43 43 42 39 37 41 40 38 37 33 29 25 21 16 14 16 14 11 10 11 13 18 24 27
15 9 3 5 7 6 5 5 8 8 14 22 13 21 5 3 4 41 50 52 48 47 47 49 45 43 43 41 37 36 35 34 30 28 26 21 19 17 14 13 13 10 7 9 11 16 20 24 28
16 7 6 3 4 4 5 1 7 16 33 18 8 14 6 3 16 60 53 52 50 46 45 44 44 42 42 39 35 32 30 29 26 24 23 19 16 16 14 10 9 8 7 11 14 18 20 23 23
17 2 2 4 4 4 5 10 13 17 8 6 21 11 10 4 60 41 53 46 48 46 44 43 41 37 35 34 29 26 24 24 23 21 20 17 15 14 13 9 6 8 11 13 16 21 22 22 19
19 4 5 5 5 4 5 15 27 10 11 22 18 5 9 45 46 58 48 43 46 47 43 43 40 37 33 28 24 21 19 18 20 20 20 19 17 14 13 10 10 10 13 15 17 21 24 19 18
6 2 7 3 4 6 4 20 13 8 15 16 19 26 16 25 46 54 45 40 32 35 38 39 40 34 27 24 21 17 15 17 19 19 21 20 16 14 12 11 14 13 13 15 18 19 20 17 16
3 3 2 5 7 4 8 20 8 14 18 13 43 9 23 40 51 52 44 41 36 37 37 37 35 32 28 23 18 18 15 14 16 18 17 15 15 14 14 13 13 13 13 12 16 18 20 19 17
4 1 5 5 14 9 23 23 17 33 5 50 35 9 20 66 58 48 45 39 35 35 36 34 35 31 27 21 18 17 16 16 14 14 14 15 14 14 14 13 13 14 12 13 15 21 21 19 15
6 5 4 8 12 7 29 15 27 31 31 25 35 21 60 63 57 52 48 42 40 36 34 34 30 27 24 22 19 18 16 16 13 12 15 13 9 7 15 14 11 13 13 14 15 20 19 19 17
6 3 4 5 6 9 26 27 39 22 43 29 40 7 63 62 60 57 52 44 39 37 39 36 32 31 28 24 21 20 16 15 14 13 13 12 10 8 11 13 11 13 14 14 16 21 21 19 14
7 6 6 17 12 17 24 19 45 32 24 39 57 45 72 66 60 55 51 42 38 35 41 40 35 31 30 28 22 23 20 16 15 10 14 14 12 8 8 6 9 13 18 17 13 16 19 19 15
7 8 2 14 28 11 4 23 30 42 37 67 50 81 83 76 69 63 54 47 41 36 40 39 36 33 34 29 19 23 18 14 15 10 12 10 13 11 11 7 6 12 24 19 19 18 18 20 16
2 4 18 13 20 27 20 13 22 44 27 50 53 83 85 78 71 61 53 46 42 42 38 37 40 34 35 26 22 22 16 11 19 11 4 8 13 8 13 12 7 13 24 23 20 21 25 26 23
7 15 2 10 12 18 6 1 23 21 40 48 66 84 85 81 72 61 59 52 50 46 41 43 41 35 33 25 27 22 18 13 13 13 12 14 13 11 15 16 8 14 16 18 19 18 19 17 21
8 13 14 7 9 4 12 7 7 13 54 65 70 75 77 80 75 72 63 58 54 56 47 48 43 39 32 29 28 25 19 19 12 13 20 19 18 18 17 19 14 12 16 18 18 14 12 12 16
9 7 11 6 15 11 15 16 9 31 38 50 64 62 74 79 78 71 65 57 50 51 54 45 45 40 37 31 32 28 26 22 12 18 12 12 16 21 24 24 18 17 16 12 9 11 12 15 20
11 6 2 11 10 8 3 12 9 41 40 40 56 66 66 80 77 72 63 61 55 54 58 57 53 46 38 37 34 31 29 25 21 22 18 20 14 13 12 15 20 18 15 17 17 12 11 15 12
10 6 11 11 14 11 9 16 7 35 54 53 50 61 67 77 81 76 74 67 62 59 62 59 60 54 43 44 38 33 36 33 27 22 17 21 12 11 4 9 16 15 16 17 17 12 9 10 7
10 8 13 16 13 9 18 13 26 44 44 49 56 59 67 76 76 74 75 67 69 68 65 67 66 64 53 50 45 40 37 38 31 25 25 21 20 15 8 7 15 19 18 13 13 11 10 10 11
8 15 15 16 7 4 17 31 25 27 46 73 69 65 75 79 81 81 82 78 74 75 78 70 64 62 58 55 47 39 25 33 31 30 33 26 20 16 12 13 13 21 21 17 14 12 10 10 8
8 16 14 13 9 7 6 15 2 1 27 61 71 89 81 89 87 82 85 81 76 77 72 73 66 59 58 53 48 45 33 30 37 36 29 33 28 17 16 20 17 19 19 16 14 11 10 12 9
11 22 33 21 6 9 8 10 13 6 10 27 56 73 74 77 84 84 81 82 80 73 62 71 67 54 57 52 52 47 38 39 40 40 33 33 27 19 21 22 21 17 18 13 13 15 17 16 13
22 5 19 22 7 9 7 3 14 1 17 23 40 65 74 82 89 87 88 85 86 75 64 71 69 54 58 51 52 46 37 26 33 32 25 26 23 26 23 21 19 19 16 14 14 15 16 16 15
3 6 16 11 9 3 12 8 13 11 25 22 23 54 62 71 89 87 84 81 84 81 68 71 77 59 61 57 55 52 42 32 36 32 36 30 25 27 29 30 22 21 18 17 16 19 19 15 15
12 13 6 6 6 10 2 6 20 10 14 29 40 50 59 76 85 85 82 87 87 87 78 72 77 68 65 63 58 55 44 40 36 30 34 34 33 36 36 31 26 21 19 17 16 18 18 18 19
8 15 11 7 6 10 0 6 12 12 22 41 24 32 49 61 74 87 89 90 91 90 81 75 75 73 70 65 60 54 47 45 42 37 34 29 31 37 39 37 31 26 20 18 17 19 20 21 21
4 2 5 14 7 3 8 14 19 24 20 12 24 21 30 44 61 77 89 88 91 93 85 79 72 73 70 68 62 57 53 51 46 42 39 32 27 29 40 42 36 30 22 21 20 21 23 22 20
12 5 5 8 4 5 10 3 9 25 36 14 4 19 23 37 63 57 72 87 92 95 85 75 70 66 66 69 65 60 56 56 52 46 44 38 31 31 30 33 33 28 24 25 24 25 25 24 21
13 12 11 10 7 8 1 9 15 18 29 24 6 27 30 29 36 52 67 75 90 92 92 77 68 69 77 76 71 65 63 59 57 57 49 43 40 42 38 35 33 30 30 30 30 30 28 26 22
6 4 8 9 7 4 9 11 17 25 16 29 36 31 11 5 16 42 58 69 81 94 94 92 73 66 77 79 75 68 63 64 63 64 58 51 50 49 49 44 42 39 38 35 34 32 30 27 23
Wind_Direction_500mb
153 151 329 340 50 68 1 11 88 131 137 186 170 160 181 70 34 178 144 147 144 138 134 137 140 143 142 143 138 135 135 135 138 141 145 149 149 143 134 130 127 128 127 109 95 102 113 122 129
134 122 21 325 74 60 313 164 141 173 136 129 138 123 85 90 70 140 146 146 141 136 135 135 138 141 140 140 140 138 141 140 144 146 150 157 160 163 163 141 121 122 131 131 115 126 124 129 141
143 81 339 88 101 136 180 130 144 117 131 128 106 64 62 149 134 138 149 146 146 144 139 139 139 143 141 141 145 146 150 150 154 153 157 160 163 163 163 142 110 111 115 133 131 134 134 140 147
151 226 278 63 76 55 196 133 130 129 146 113 120 78 88 189 139 145 151 152 149 147 148 147 147 145 143 143 147 149 148 156 160 166 173 176 174 164 174 158 127 125 122 131 135 142 144 138 141
158 148 34 41 47 22 68 137 141 164 139 148 137 127 84 142 143 151 155 155 153 150 154 157 150 154 153 152 156 158 152 158 159 173 179 181 175 169 179 167 148 139 130 135 137 146 152 150 149
106 122 63 308 91 63 62 161 160 118 123 125 112 123 129 157 157 159 159 154 158 153 157 160 163 165 162 157 170 157 166 167 161 166 167 178 177 180 184 170 148 145 137 142 144 145 153 169 161
86 87 148 149 133 126 179 185 202 126 141 110 140 107 152 163 157 152 156 159 161 157 161 170 175 169 165 170 167 169 157 169 172 171 174 178 189 186 172 171 162 149 145 144 148 147 151 164 186
74 22 83 231 181 234 164 176 169 141 132 142 146 173 176 160 162 161 160 160 163 169 175 174 175 174 169 166 176 163 156 163 159 168 173 176 174 178 175 180 173 158 165 162 155 154 158 168 192
40 50 260 230 155 159 152 156 155 157 149 164 178 184 168 162 167 167 168 171 174 175 181 184 186 176 168 174 163 166 163 158 153 162 178 168 161 157 178 176 181 171 176 168 162 167 160 171 179
122 64 278 266 183 160 174 168 154 153 156 223 206 177 166 169 175 179 181 180 185 188 186 185 183 178 171 166 160 167 157 159 159 175 174 192 153 128 139 170 181 189 188 179 175 175 168 174 177
202 180 297 4 2 158 171 203 172 147 185 204 182 176 172 179 182 186 189 186 177 184 184 184 183 181 170 161 164 161 146 147 156 170 183 173 168 181 172 164 207 240 195 181 183 183 180 175 178
248 220 159 20 44 36 214 181 184 177 203 204 198 175 174 182 187 193 197 193 186 188 187 182 181 185 177 170 162 162 161 172 155 154 172 185 198 214 214 205 226 214 183 180 194 193 189 197 190
215 283 129 32 56 25 299 208 197 217 232 195 182 173 176 182 190 198 195 193 192 192 184 185 180 175 175 190 181 180 180 175 182 183 190 201 220 217 239 234 243 187 183 188 193 198 208 216 220
271 240 171 87 93 88 8 118 220 223 211 182 178 178 181 185 191 194 196 201 207 202 197 193 188 183 189 198 200 194 192 195 196 209 235 250 258 265 245 248 248 207 190 198 202 219 219 219 231
241 342 351 87 81 120 205 355 353 236 185 173 177 181 188 191 191 198 201 206 205 209 211 202 196 197 202 213 216 206 199 199 224 241 247 258 267 276 262 247 244 211 210 211 227 222 223 232 242
1 71 352 147 150 207 126 286 138 150 161 165 174 187 193 198 200 201 206 207 209 213 217 213 211 214 221 224 222 219 209 217 227 240 252 247 266 274 277 250 229 224 217 205 229 245 261 280 275
23 283 207 292 184 136 101 263 184 163 173 188 180 187 199 199 202 207 206 209 210 217 220 218 216 223 228 225 225 224 224 228 228 259 256 251 268 269 267 230 218 220 223 236 241 249 261 263 264
246 241 266 254 211 182 183 231 206 188 189 188 195 190 201 205 207 208 209 213 214 217 219 222 224 225 228 220 222 226 229 235 227 242 249 244 245 267 234 201 196 197 203 220 229 221 236 235 217
200 210 229 268 172 138 193 222 229 204 204 189 197 205 202 212 211 212 213 214 220 220 220 218 221 224 224 217 220 225 232 224 232 238 236 238 224 233 189 189 193 193 189 178 181 200 210 229 242
211 226 235 277 132 251 186 227 232 193 208 205 192 201 209 217 218 218 219 219 222 227 224 218 220 221 219 220 222 222 234 231 230 238 221 225 222 222 193 186 196 182 181 190 205 208 217 235 233
237 208 225 213 333 303 121 310 214 -0 202 211 198 204 207 214 219 222 221 221 222 224 223 218 218 219 216 220 218 221 222 221 222 217 222 227 224 232 218 204 198 193 191 207 219 220 238 239 239
246 210 242 242 112 253 88 267 290 176 221 207 198 204 205 210 219 222 222 220 216 220 223 216 216 218 215 220 216 222 234 227 222 222 241 214 228 224 219 217 213 217 217 228 231 239 242 238 233
232 167 208 232 208 62 292 100 272 273 222 222 208 207 206 209 216 219 221 219 219 216 219 217 215 218 218 221 221 223 230 226 223 226 230 218 224 213 214 212 217 221 218 225 232 239 235 242 254
282 120 32 44 86 87 234 153 281 204 226 227 205 215 204 204 216 220 222 222 219 218 216 216 216 218 218 218 220 222 227 219 220 227 221 217 215 215 217 216 222 222 219 234 233 234 244 250 259
75 57 343 347 12 216 32 65 239 292 245 218 213 209 201 204 215 217 218 217 216 215 215 214 217 218 218 217 219 221 223 222 226 228 225 222 226 220 214 219 229 231 237 241 240 243 250 267 274
226 154 149 214 211 252 63 248 262 280 293 234 242 207 204 202 211 218 219 217 216 214 214 217 215 216 218 219 221 221 222 223 227 228 228 227 236 233 227 239 238 238 247 243 256 261 267 273 274
350 277 167 101 8 43 290 311 321 347 333 116 125 149 198 216 208 217 218 219 218 213 213 218 218 219 222 223 222 223 223 225 227 229 229 224 226 226 234 231 234 232 239 251 260 271 270 270 280
81 196 23 14 132 276 316 283 258 321 316 314 145 197 221 210 205 207 215 218 221 219 216 217 221 226 229 227 227 227 225 228 227 230 228 225 223 216 211 204 217 228 242 252 265 273 273 271 280
352 11 44 112 105 152 314 280 228 276 283 280 240 245 234 202 206 213 213 219 220 220 219 213 220 228 228 229 229 230 228 228 229 230 228 226 223 221 223 222 226 236 246 255 264 267 268 265 274
5 67 114 104 288 80 136 276 293 329 353 60 47 55 54 296 252 225 214 210 214 219 218 216 217 228 232 232 231 231 230 229 230 230 230 227 224 224 227 231 235 239 246 253 262 264 264 263 269
Wind_Speed_850mb
13 9 0 6 3 6 6 5 5 16 14 7 25 7 8 5 1 4 52 47 46 45 48 46 43 43 43 42 39 37 41 40 38 37 33 29 25 21 16 14 16 14 11 10 11 13 18 24 27
15 9 3 5 7 6 5 5 8 8 14 22 13 21 5 3 4 41 50 52 48 47 47 49 45 43 43 41 37 36 35 34 30 28 26 21 19 17 14 13 13 10 7 9 11 16 20 24 28
16 7 6 3 4 4 5 1 7 16 33 18 8 14 6 3 16 60 53 52 50 46 45 44 44 42 42 39 35 32 30 29 26 24 23 19 16 16 14 10 9 8 7 11 14 18 20 23 23
17 2 2 4 4 4 5 10 13 17 8 6 21 11 10 4 60 41 53 46 48 46 44 43 41 37 35 34 29 26 24 24 23 21 20 17 15 14 13 9 6 8 11 13 16 21 22 22 19
19 4 5 5 5 4 5 15 27 10 11 22 18 5 9 45 46 58 48 43 46 47 43 43 40 37 33 28 24 21 19 18 20 20 20 19 17 14 13 10 10 10 13 15 17 21 24 19 18
6 2 7 3 4 6 4 20 13 8 15 16 19 26 16 25 46 54 45 40 32 35 38 39 40 34 27 24 21 17 15 17 19 19 21 20 16 14 12 11 14 13 13 15 18 19 20 17 16
3 3 2 5 7 4 8 20 8 14 18 13 43 9 23 40 51 52 44 41 36 37 37 37 35 32 28 23 18 18 15 14 16 18 17 15 15 14 14 13 13 13 13 12 16 18 20 19 17
4 1 5 5 14 9 23 23 17 33 5 50 35 9 20 66 58 48 45 39 35 35 36 34 35 31 27 21 18 17 16 16 14 14 14 15 14 14 14 13 13 14 12 13 15 21 21 19 15
6 5 4 8 12 7 29 15 27 31 31 25 35 21 60 63 57 52 48 42 40 36 34 34 30 27 24 22 19 18 16 16 13 12 15 13 9 7 15 14 11 13 13 14 15 20 19 19 17
6 3 4 5 6 9 26 27 39 22 43 29 40 7 63 62 60 57 52 44 39 37 39 36 32 31 28 24 21 20 16 15 14 13 13 12 10 8 11 13 11 13 14 14 16 21 21 19 14
7 6 6 17 12 17 24 19 45 32 24 39 57 45 72 66 60 55 51 42 38 35 41 40 35 31 30 28 22 23 20 16 15 10 14 14 12 8 8 6 9 13 18 17 13 16 19 19 15
7 8 2 14 28 11 4 23 30 42 37 67 50 81 83 76 69 63 54 47 41 36 40 39 36 33 34 29 19 23 18 14 15 10 12 10 13 11 11 7 6 12 24 19 19 18 18 20 16
2 4 18 13 20 27 20 13 22 44 27 50 53 83 85 78 71 61 53 46 42 42 38 37 40 34 35 26 22 22 16 11 19 11 4 8 13 8 13 12 7 13 24 23 20 21 25 26 23
7 15 2 10 12 18 6 1 23 21 40 48 66 84 85 81 72 61 59 52 50 46 41 43 41 35 33 25 27 22 18 13 13 13 12 14 13 11 15 16 8 14 16 18 19 18 19 17 21
8 13 14 7 9 4 12 7 7 13 54 65 70 75 77 80 75 72 63 58 54 56 47 48 43 39 32 29 28 25 19 19 12 13 20 19 18 18 17 19 14 12 16 18 18 14 12 12 16
9 7 11 6 15 11 15 16 9 31 38 50 64 62 74 79 78 71 65 57 50 51 54 45 45 40 37 31 32 28 26 22 12 18 12 12 16 21 24 24 18 17 16 12 9 11 12 15 20
11 6 2 11 10 8 3 12 9 41 40 40 56 66 66 80 77 72 63 61 55 54 58 57 53 46 38 37 34 31 29 25 21 22 18 20 14 13 12 15 20 18 15 17 17 12 11 15 12
10 6 11 11 14 11 9 16 7 35 54 53 50 61 67 77 81 76 74 67 62 59 62 59 60 54 43 44 38 33 36 33 27 22 17 21 12 11 4 9 16 15 16 17 17 12 9 10 7
10 8 13 16 13 9 18 13 26 44 44 49 56 59 67 76 76 74 75 67 69 68 65 67 66 64 53 50 45 40 37 38 31 25 25 21 20 15 8 7 15 19 18 13 13 11 10 10 11
8 15 15 16 7 4 17 31 25 27 46 73 69 65 75 79 81 81 82 78 74 75 78 70 64 62 58 55 47 39 25 33 31 30 33 26 20 16 12 13 13 21 21 17 14 12 10 10 8
8 16 14 13 9 7 6 15 2 1 27 61 71 89 81 89 87 82 85 81 76 77 72 73 66 59 58 53 48 45 33 30 37 36 29 33 28 17 16 20 17 19 19 16 14 11 10 12 9
11 22 33 21 6 9 8 10 13 6 10 27 56 73 74 77 84 84 81 82 80 73 62 71 67 54 57 52 52 47 38 39 40 40 33 33 27 19 21 22 21 17 18 13 13 15 17 16 13
22 5 19 22 7 9 7 3 14 1 17 23 40 65 74 82 89 87 88 85 86 75 64 71 69 54 58 51 52 46 37 26 33 32 25 26 23 26 23 21 19 19 16 14 14 15 16 16 15
3 6 16 11 9 3 12 8 13 11 25 22 23 54 62 71 89 87 84 81 84 81 68 71 77 59 61 57 55 52 42 32 36 32 36 30 25 27 29 30 22 21 18 17 16 19 19 15 15
12 13 6 6 6 10 2 6 20 10 14 29 40 50 59 76 85 85 82 87 87 87 78 72 77 68 65 63 58 55 44 40 36 30 34 34 33 36 36 31 26 21 19 17 16 18 18 18 19
8 15 11 7 6 10 0 6 12 12 22 41 24 32 49 61 74 87 89 90 91 90 81 75 75 73 70 65 60 54 47 45 42 37 34 29 31 37 39 37 31 26 20 18 17 19 20 21 21
4 2 5 14 7 3 8 14 19 24 20 12 24 21 30 44 61 77 89 88 91 93 85 79 72 73 70 68 62 57 53 51 46 42 39 32 27 29 40 42 36 30 22 21 20 21 23 22 20
12 5 5 8 4 5 10 3 9 25 36 14 4 19 23 37 63 57 72 87 92 95 85 75 70 66 66 69 65 60 56 56 52 46 44 38 31 31 30 33 33 28 24 25 24 25 25 24 21
13 12 11 10 7 8 1 9 15 18 29 24 6 27 30 29 36 52 67 75 90 92 92 77 68 69 77 76 71 65 63 59 57 57 49 43 40 42 38 35 33 30 30 30 30 30 28 26 22
6 4 8 9 7 4 9 11 17 25 16 29 36 31 11 5 16 42 58 69 81 94 94 92 73 66 77 79 75 68 63 64 63 64 58 51 50 49 49 44 42 39 38 35 34 32 30 27 23
Wind_Direction_850mb
153 151 329 340 50 68 1 11 88 131 137 186 170 160 181 70 34 178 144 147 144 138 134 137 140 143 142 143 138 135 135 135 138 141 145 149 149 143 134 130 127 128 127 109 95 102 113 122 129
134 122 21 325 74 60 313 164 141 173 136 129 138 123 85 90 70 140 146 146 141 136 135 135 138 141 140 140 140 138 141 140 144 146 150 157 160 163 163 141 121 122 131 131 115 126 124 129 141
143 81 339 88 101 136 180 130 144 117 131 128 106 64 62 149 134 138 149 146 146 144 139 139 139 143 141 141 145 146 150 150 154 153 157 160 163 163 163 142 110 111 115 133 131 134 134 140 147
151 226 278 63 76 55 196 133 130 129 146 113 120 78 88 189 139 145 151 152 149 147 148 147 147 145 143 143 147 149 148 156 160 166 173 176 174 164 174 158 127 125 122 131 135 142 144 138 141
158 148 34 41 47 22 68 137 141 164 139 148 137 127 84 142 143 151 155 155 153 150 154 157 150 154 153 152 156 158 152 158 159 173 179 181 175 169 179 167 148 139 130 135 137 146 152 150 149
106 122 63 308 91 63 62 161 160 118 123 125 112 123 129 157 157 159 159 154 158 153 157 160 163 165 162 157 170 157 166 167 161 166 167 178 177 180 184 170 148 145 137 142 144 145 153 169 161
86 87 148 149 133 126 179 185 202 126 141 110 140 107 152 163 157 152 156 159 161 157 161 170 175 169 165 170 167 169 157 169 172 171 174 178 189 186 172 171 162 149 145 144 148 147 151 164 186
74 22 83 231 181 234 164 176 169 141 132 142 146 173 176 160 162 161 160 160 163 169 175 174 175 174 169 166 176 163 156 163 159 168 173 176 174 178 175 180 173 158 165 162 155 154 158 168 192
40 50 260 230 155 159 152 156 155 157 149 164 178 184 168 162 167 167 168 171 174 175 181 184 186 176 168 174 163 166 163 158 153 162 178 168 161 157 178 176 181 171 176 168 162 167 160 171 179
122 64 278 266 183 160 174 168 154 153 156 223 206 177 166 169 175 179 181 180 185 188 186 185 183 178 171 166 160 167 157 159 159 175 174 192 153 128 139 170 181 189 188 179 175 175 168 174 177
202 180 297 4 2 158 171 203 172 147 185 204 182 176 172 179 182 186 189 186 177 184 184 184 183 181 170 161 164 161 146 147 156 170 183 173 168 181 172 164 207 240 195 181 183 183 180 175 178
248 220 159 20 44 36 214 181 184 177 203 204 198 175 174 182 187 193 197 193 186 188 187 182 181 185 177 170 162 162 161 172 155 154 172 185 198 214 214 205 226 214 183 180 194 193 189 197 190
215 283 129 32 56 25 299 208 197 217 232 195 182 173 176 182 190 198 195 193 192 192 184 185 180 175 175 190 181 180 180 175 182 183 190 201 220 217 239 234 243 187 183 188 193 198 208 216 220
271 240 171 87 93 88 8 118 220 223 211 182 178 178 181 185 191 194 196 201 207 202 197 193 188 183 189 198 200 194 192 195 196 209 235 250 258 265 245 248 248 207 190 198 202 219 219 219 231
241 342 351 87 81 120 205 355 353 236 185 173 177 181 188 191 191 198 201 206 205 209 211 202 196 197 202 213 216 206 199 199 224 241 247 258 267 276 262 247 244 211 210 211 227 222 223 232 242
1 71 352 147 150 207 126 286 138 150 161 165 174 187 193 198 200 201 206 207 209 213 217 213 211 214 221 224 222 219 209 217 227 240 252 247 266 274 277 250 229 224 217 205 229 245 261 280 275
23 283 207 292 184 136 101 263 184 163 173 188 180 187 199 199 202 207 206 209 210 217 220 218 216 223 228 225 225 224 224 228 228 259 256 251 268 269 267 230 218 220 223 236 241 249 261 263 264
246 241 266 254 211 182 183 231 206 188 189 188 195 190 201 205 207 208 209 213 214 217 219 222 224 225 228 220 222 226 229 235 227 242 249 244 245 267 234 201 196 197 203 220 229 221 236 235 217
200 210 229 268 172 138 193 222 229 204 204 189 197 205 202 212 211 212 213 214 220 220 220 218 221 224 224 217 220 225 232 224 232 238 236 238 224 233 189 189 193 193 189 178 181 200 210 229 242
211 226 235 277 132 251 186 227 232 193 208 205 192 201 209 217 218 218 219 219 222 227 224 218 220 221 219 220 222 222 234 231 230 238 221 225 222 222 193 186 196 182 181 190 205 208 217 235 233
237 208 225 213 333 303 121 310 214 -0 202 211 198 204 207 214 219 222 221 221 222 224 223 218 218 219 216 220 218 221 222 221 222 217 222 227 224 232 218 204 198 193 191 207 219 220 238 239 239
246 210 242 242 112 253 88 267 290 176 221 207 198 204 205 210 219 222 222 220 216 220 223 216 216 218 215 220 216 222 234 227 222 222 241 214 228 224 219 217 213 217 217 228 231 239 242 238 233
232 167 208 232 208 62 292 100 272 273 222 222 208 207 206 209 216 219 221 219 219 216 219 217 215 218 218 221 221 223 230 226 223 226 230 218 224 213 214 212 217 221 218 225 232 239 235 242 254
282 120 32 44 86 87 234 153 281 204 226 227 205 215 204 204 216 220 222 222 219 218 216 216 216 218 218 218 220 222 227 219 220 227 221 217 215 215 217 216 222 222 219 234 233 234 244 250 259
75 57 343 347 12 216 32 65 239 292 245 218 213 209 201 204 215 217 218 217 216 215 215 214 217 218 218 217 219 221 223 222 226 228 225 222 226 220 214 219 229 231 237 241 240 243 250 267 274
226 154 149 214 211 252 63 248 262 280 293 234 242 207 204 202 211 218 219 217 216 214 214 217 215 216 218 219 221 221 222 223 227 228 228 227 236 233 227 239 238 238 247 243 256 261 267 273 274
350 277 167 101 8 43 290 311 321 347 333 116 125 149 198 216 208 217 218 219 218 213 213 218 218 219 222 223 222 223 223 225 227 229 229 224 226 226 234 231 234 232 239 251 260 271 270 270 280
81 196 23 14 132 276 316 283 258 321 316 314 145 197 221 210 205 207 215 218 221 219 216 217 221 226 229 227 227 227 225 228 227 230 228 225 223 216 211 204 217 228 242 252 265 273 273 271 280
352 11 44 112 105 152 314 280 228 276 283 280 240 245 234 202 206 213 213 219 220 220 219 213 220 228 228 229 229 230 228 228 229 230 228 226 223 221 223 222 226 236 246 255 264 267 268 265 274
5 67 114 104 288 80 136 276 293 329 353 60 47 55 54 296 252 225 214 210 214 219 218 216 217 228 232 232 231 231 230 229 230 230 230 227 224 224 227 231 235 239 246 253 262 264 264 263 269